STARLINK-11262, 62009

Orbit data source: Space-Track

STARLINK-11262, 62009 is a payload satellite owned by SpaceX/Seattle (US) in LEO that was launched on Mon, 18 Nov 2024 UTC via an FALCON 9 launch vehicle from the Air Force Western Test Range (AFWTR). Payload-class satellites include a variety of spacecraft equipped with specific instruments for various scientific and technological missions. These include communications satellites like Starlink; space stations such as the ISS; scientific satellites like the Hubble; Earth observation satellites from companies like Planet Labs, Umbra, and HawkEye 360; GPS; miniature CubeSats for education and research; and military/defense satellites.

Loading next visibility...
Identifier
62009, 2024-213B
Orbit
LEO
Country
Flag of USUS
Related business
Manufacturer
SpaceX/Seattle
Mission
Operational Commercial Communications
Bus & Motor
STARLINK V2MD, Unknown motor
Mass
960 kg wet, ~910 kg dry
Launch date (UTC)
2024-11-18 (11 months ago)
Launch vehicle
FALCON 9
Launch site
Air Force Western Test Range (AFWTR)
Object type
Payload
Rocket body
Debris
Shape & HBR
Box + 2 Pan, 18.1 m
Radar Cross Section
36.964 m², Large (>1 m²)

Expand to show TLE details & history
Last TLE update: 15 hours ago

TLE from 15 hours ago
0 STARLINK-11262
1 62009U 24213B   25291.65808002  .00207212  00000-0  16691-2 0  9996
2 62009  53.1576  21.7130 0001346  98.2680 261.8491 15.69764453 52601
Epoch: 2025-10-18T15:47Z
TLE epoch observation values (Epoch: 2025-10-18T15:47:38.113Z)
Latitude
-0°
Longitude
117.41825°
Altitude
360.614 km
Speed
7.694 km/s
True Right ascension
01h 26m 51s
True Declination
0° 00' 00"
Sunlit
Object was in full shadow at epoch
Visualization orbit readout
Latitude
Unknown
Longitude
Unknown
Altitude
Unknown
Speed
Unknown
Apparent Right ascension
Unknown
Apparent Declination
Unknown
Sunlit
N/A
Visualization observer readout
Local Sidereal Time
01:51:04
Azimuth
Unknown
Elevation
Unknown
Doppler factor
Unknown
Orbital elements
Apogee altitude
360.739 km
Perigee altitude
358.925 km
Semi-major axis
6,737.969 km
Eccentricity
0.00013
Inclination
53.1576°
RAAN
21.713°
Arg. of periapsis
98.268°
True anomaly
261.83383°
Mean anomaly
261.8491°
Eccentric anomaly
261.84147°
Mean motion
3.92419 °/min
Orbital period
91.74 mins
BSTAR
0.0016691
Loading maneuver chart data...
Computing Atmospheric mass density...
Loading historical data...
Loading historical data...
Loading historical data...
Loading historical data...
Loading historical data...
Loading historical data...
Loading historical data...

Documentation

Showing up to 5 results
|